SCP
0 0 0 0 0 0 0 0 0 0 0 0 0 0 0 0 0 0 0 0 0 0 0 0 0 0 0 0 0 0 0 0 0 0 0 0 0 0 0 0 0 0 0 0 0 0 0 0 0
0 0 0 0 0 0 0 0 0 0 0 0 0 0 0 0 0 0 0 0 0 0 0 0 0 0 0 0 0 0 0 0 0 0 0 0 0 0 0 0 0 0 0 0 0 0 0 0 0
0 0 0 0 0 0 0 0 0 0 0 0 0 0 0 0 0 0 0 0 0 0 0 0 0 0 0 0 0 0 0 0 0 0 0 0 0 0 0 0 0 0 0 0 0 0 0 0 0
0 0 0 0 0 0 0 0 0 0 0 0 0 0 0 0 0 0 0 0 0 0 0 0 0 0 0 0 0 0 0 0 0 0 0 0 0 0 0 0 0 0 0 0 0 0 0 0 0
0 0 0 0 0 0 0 0 0 0 0 0 0 0 0 0 0 0 0 0 0 0 0 0 0 0 0 0 0 0 0 0 0 0 0 0 0 0 0 0 0 0 0 0 0 0 0 0 0
0 0 0 0 0 0 0 0 0 0 0 0 0 0 0 0 0 0 0 0 0 0 0 0 0 0 0 0 0 0 0 0 0 0 0 0 0 0 0 0 0 0 0 0 0 0 0 0 0
0 0 0 0 0 0 0 0 0 0 0 0 0 0 0 0 0 0 0 0 0 0 0 0 0 0 0 0 0 0 0 0 0 0 0 0 0 0 0 0 0 0 0 0 0 0 0 0 0
0 0 0 0 0 0 0 0 0 0 0 0 0 0 0 0 0 0 0 0 0 0 0 0 0 0 0 0 0 0 0 0 0 0 0 0 0 0 0 0 0 0 0 0 0 0 0 0 0
0 0 0 0 0 0 0 0 0 0 0 0 0 0 0 0 0 0 0 0 0 0 0 0 0 0 0 0 0 0 0 0 0 0 0 0 0 0 0 0 0 0 0 0 0 0 0 0 0
0 0 0 0 0 0 0 0 0 0 0 0 0 0 0 0 0 0 0 0 0 0 0 0 0 0 0 0 0 0 0 0 0 0 0 0 0 0 0 0 0 0 0 0 0 0 0 0 0
0 0 0 0 0 0 0 0 0 0 0 0 0 0 0 0 0 0 0 0 0 0 0 0 0 0 0 0 0 0 0 0 0 0 0 0 0 0 0 0 0 0 0 0 0 0 0 0 0
0 0 0 0 0 0 0 0 0 0 0 0 0 0 0 0 0 0 0 0 0 0 0 0 0 0 0 0 0 0 0 0 0 0 0 0 0 0 0 0 0 0 0 0 0 0 0 0 0
0 0 0 0 0 0 0 0 0 0 0 0 0 0 0 0 0 0 0 0 0 0 0 0 0 0 0 0 0 0 0 0 0 0 0 0 0 0 0 0 0 0 0 0 0 0 0 0 0
0 0 0 0 0 0 0 0 0 0 0 0 0 0 0 0 0 0 0 0 0 0 0 0 0 0 0 0 0 0 0 0 0 0 0 0 0 0 0 0 0 0 0 0 0 0 0 0 0
0 0 0 0 0 0 0 0 0 0 0 0 0 0 0 0 0 0 0 0 0 0 0 0 0 0 0 0 0 0 0 0 0 0 0 0 0 0 0 0 0 0 0 0 0 0 0 0 0
0 0 0 0 0 0 0 0 0 0 0 0 0 0 0 0 0 0 0 0 0 0 0 0 0 0 0 0 0 0 0 0 0 0 0 0 0 0 0 0 0 0 0 0 0 0 0 0 0
0 0 0 0 0 0 0 0 0 0 0 0 0 0 0 0 0 0 0 0 0 0 0 0 0 0 0 0 0 0 0 0 0 0 0 0 0 0 0 0 0 0 0 0 0 0 0 0 0
0 0 0 0 0 0 0 0 0 0 0 0 0 0 0 0 0 0 0 0 0 0 0 0 0 0 0 0 0 0 0 0 0 0 0 0 0 0 0 0 0 0 0 0 0 0 0 0 0
0 0 0 0 0 0 0 0 0 0 0 0 0 0 0 0 0 0 0 0 0 0 0 0 0 0 0 0 0 0 0 0 0 0 0 0 0 0 0 0 0 0 0 0 0 0 0 0 0
0 0 0 0 0 0 0 0 0 0 0 0 0 0 0 0 0 0 0 0 0 0 0 0 0 0 0 0 0 0 0 0 0 0 0 0 0 0 0 0 0 0 0 0 0 0 0 0 0
0 0 0 0 0 0 0 0 0 0 0 0 0 0 0 0 0 0 0 0 0 0 0 0 0 0 0 0 0 0 0 0 0 0 0 0 0 0 0 0 0 0 0 0 0 0 0 0 0
0 0 0 0 0 0 0 0 0 0 0 0 0 0 0 0 0 0 0 0 0 0 0 0 0 0 0 0 0 0 0 0 0 0 0 0 0 0 0 0 0 0 0 0 0 0 0 0 0
0 0 0 0 0 0 0 0 0 0 0 0 0 0 0 0 0 0 0 0 0 0 0 0 0 0 0 0 0 0 0 0 0 0 0 0 0 0 0 0 0 0 0 0 0 0 0 0 0
0 0 0 0 0 0 0 0 0 0 0 0 0 0 0 0 0 0 0 1 1 1 0 0 0 0 0 0 0 0 0 0 0 0 0 0 0 0 0 0 0 0 0 0 0 0 0 0 0
0 0 0 0 0 0 0 0 0 0 0 0 0 0 0 0 0 0 0 1 1 1 1 1 1 1 1 1 0 0 0 0 0 0 0 0 0 0 0 0 0 0 0 0 0 0 0 0 0
0 0 0 0 0 0 0 0 0 0 0 0 0 0 0 0 0 0 0 0 1 1 1 1 1 1 1 1 1 0 0 0 0 0 0 0 0 0 0 0 0 0 0 0 0 0 0 0 0
0 0 0 0 0 0 0 0 0 0 0 0 0 0 0 0 0 0 0 0 1 1 1 1 1 1 1 1 1 1 0 0 0 0 0 0 0 0 0 0 0 0 0 0 0 0 0 0 0
0 0 0 0 0 0 0 0 0 0 0 0 0 0 0 0 0 0 0 0 0 1 1 1 1 1 1 1 1 1 1 0 0 0 0 0 0 0 0 0 0 0 0 0 0 0 0 0 0
0 0 0 0 0 0 0 0 0 0 0 0 0 0 0 0 0 0 0 0 1 1 1 1 1 1 1 1 1 1 1 1 1 1 1 1 1 1 1 0 0 0 0 0 0 0 0 0 0
0 0 0 0 0 0 0 0 0 0 0 0 0 0 0 0 0 0 0 0 1 1 1 1 1 1 1 1 1 1 1 1 1 1 1 1 1 1 1 0 0 0 0 0 0 0 0 0 0
Wind_Speed
8 6 3 1 1 2 2 2 3 4 5 7 9 10 8 7 4 4 2 6 7 6 4 6 8 9 9 10 10 10 10 11 12 12 13 13 13 13 13 13 13 12 12 11 10 9 9 9 8
5 5 2 0 2 2 2 3 5 5 7 9 9 9 8 7 5 6 4 7 8 7 4 5 9 10 11 11 10 10 11 11 12 12 12 13 13 13 13 13 12 12 11 10 10 10 9 9 8
6 4 1 2 1 2 2 4 6 7 7 7 6 6 6 5 5 4 5 9 8 6 4 6 10 11 12 11 11 10 11 11 11 12 12 13 13 13 13 13 12 11 11 10 10 9 8 8 8
2 1 1 2 1 2 4 5 7 9 8 8 8 6 5 4 4 6 9 10 9 6 4 6 10 11 11 10 10 10 10 11 11 12 12 12 12 12 12 12 12 11 10 10 9 9 8 8 8
1 1 2 1 1 2 5 7 8 8 6 8 10 7 5 4 9 10 10 10 8 6 4 6 10 11 10 9 9 9 10 11 11 12 12 12 12 12 12 12 11 10 10 9 9 9 8 8 7
1 2 2 1 3 3 5 6 9 9 10 9 9 7 4 4 9 9 9 8 7 7 5 5 10 10 9 9 10 10 10 11 12 12 12 12 11 11 11 11 11 10 9 9 8 8 8 7 6
2 2 1 2 3 4 5 5 8 9 9 6 8 7 4 4 6 8 8 8 7 6 6 4 4 5 7 8 10 10 10 11 12 12 11 11 11 11 11 11 10 10 9 9 8 8 8 6 5
3 2 1 2 4 3 5 5 6 9 8 8 7 8 6 6 7 8 8 7 6 6 5 4 3 2 3 4 8 10 11 11 11 11 11 10 10 10 10 9 10 10 9 8 8 7 6 6 5
2 2 1 3 4 4 6 7 5 7 9 6 5 6 9 11 10 8 7 5 5 5 4 4 4 3 2 2 5 7 9 9 9 8 9 8 4 5 6 8 9 10 9 8 7 7 5 5 4
3 3 4 4 5 6 7 8 5 7 9 8 8 9 12 12 10 9 8 6 5 5 4 4 4 3 3 3 3 2 3 3 3 3 3 2 3 3 5 7 9 9 9 8 7 6 4 2 1
4 5 4 4 5 6 7 6 5 9 6 8 12 13 12 11 9 9 8 7 6 6 5 4 4 4 3 2 3 2 1 2 2 2 3 2 2 2 2 2 4 4 6 3 4 3 1 1 1
2 3 4 5 5 7 6 6 6 5 7 11 14 15 13 11 9 9 8 8 7 6 5 4 4 4 3 2 2 2 2 2 2 2 3 3 2 2 2 2 2 2 2 2 2 1 1 2 2
1 1 3 5 6 8 9 7 7 6 11 13 14 13 11 11 9 7 7 7 7 6 5 4 4 4 3 3 2 3 2 2 2 2 2 3 3 3 2 2 2 2 2 2 2 2 2 2 2
2 1 2 5 6 7 10 6 6 7 12 13 13 11 10 10 10 8 7 7 7 6 6 5 4 4 4 3 2 2 2 2 2 2 3 3 3 3 3 2 2 2 2 2 2 3 2 1 1
2 2 1 2 5 5 9 5 5 10 13 12 11 10 10 9 9 9 9 8 7 7 6 6 5 4 4 4 3 2 2 2 2 2 3 3 3 3 3 3 2 2 2 2 2 2 1 1 1
3 2 0 3 4 4 8 4 6 11 13 11 10 10 9 9 9 9 9 8 7 7 6 6 6 5 4 3 3 2 2 2 2 2 2 3 4 4 3 3 3 2 2 2 2 2 2 1 1
2 0 1 2 3 4 6 5 8 10 13 12 11 10 10 8 8 8 9 9 8 7 7 5 5 5 4 3 2 2 2 2 1 2 2 3 4 4 3 3 2 2 2 2 2 2 2 2 1
4 2 2 3 4 3 4 6 9 11 12 12 11 10 10 10 10 9 9 9 8 7 7 6 5 4 3 2 2 1 1 1 1 1 2 3 3 3 3 2 2 3 2 1 2 2 2 2 1
4 3 3 4 4 3 4 6 9 9 9 10 9 10 11 11 9 9 9 9 8 6 6 5 5 4 3 2 2 2 1 1 1 1 2 3 3 3 3 2 2 2 2 2 2 2 2 1 1
3 3 3 2 2 3 3 4 7 9 11 11 11 11 11 10 8 9 9 8 8 8 7 6 5 5 4 3 3 2 2 1 1 1 1 2 3 3 4 3 2 2 2 2 2 2 1 1 1
4 4 5 4 1 2 4 2 1 3 4 6 8 10 10 13 13 11 11 9 8 8 8 7 6 6 4 4 2 2 1 1 1 1 1 1 3 3 3 3 3 2 2 2 2 2 3 2 1
5 5 5 4 2 2 3 1 5 4 4 5 7 9 9 10 10 11 10 10 9 8 7 6 6 6 5 5 4 4 4 3 3 2 2 2 2 3 3 3 3 3 2 2 2 3 2 3 1
6 5 5 4 3 1 1 3 5 1 3 5 7 10 10 10 12 12 12 11 9 8 7 6 6 6 5 5 5 5 4 3 2 2 2 2 1 2 3 3 3 2 2 2 2 2 2 2 2
4 2 4 4 4 1 3 3 5 4 8 7 7 9 11 11 10 10 9 8 7 7 7 6 6 5 5 5 5 5 5 4 3 3 3 2 1 1 2 3 2 2 2 2 2 2 2 2 2
3 6 4 5 4 4 3 2 7 7 7 8 9 9 10 11 10 10 10 9 9 9 8 7 7 6 5 5 5 5 5 5 5 4 4 3 2 2 3 2 2 2 2 2 2 2 2 2 2
3 8 8 5 4 4 2 3 6 5 5 5 6 7 9 9 10 11 11 11 10 10 9 9 8 7 6 6 5 4 4 4 3 4 3 4 3 3 3 3 3 2 2 2 2 2 2 2 2
2 2 7 7 2 1 3 3 5 1 2 3 5 6 8 10 11 11 11 11 10 10 10 10 9 7 7 6 5 4 4 4 4 4 3 3 2 3 3 3 3 3 3 2 2 1 2 2 2
5 5 5 5 3 2 3 3 4 3 2 2 4 6 7 7 8 9 10 10 9 9 8 9 9 8 7 7 6 5 4 4 4 4 4 4 3 3 3 4 3 3 2 2 2 1 1 1 1
1 3 4 4 5 5 3 6 6 7 5 5 5 5 5 7 9 9 9 9 9 8 8 8 9 8 7 7 6 5 4 4 4 4 4 4 3 3 3 4 3 3 3 2 2 2 1 1 1
4 4 6 5 3 4 4 7 5 6 5 5 5 4 4 6 6 7 7 8 8 9 9 8 8 8 8 7 6 5 4 4 4 4 3 3 3 3 3 3 3 3 3 2 2 2 2 2 1
Wind_Direction
176 164 160 186 46 51 71 91 98 72 58 59 73 81 75 55 80 119 168 136 129 136 140 132 131 130 128 126 126 127 127 130 134 134 136 136 136 136 135 135 135 135 135 135 136 139 138 138 133
165 167 181 77 75 67 44 93 91 96 115 104 77 76 73 68 84 109 119 131 130 134 130 125 120 124 125 125 126 127 127 130 133 135 138 139 138 137 137 136 137 137 136 134 135 137 138 139 132
177 187 149 53 89 140 132 114 109 97 99 90 75 54 61 84 94 115 138 133 122 123 124 126 120 121 122 123 125 126 128 131 134 135 136 138 138 138 139 140 140 138 135 133 136 137 137 137 134
178 139 48 63 108 147 133 130 118 103 82 77 91 69 59 77 107 120 131 127 120 121 124 128 124 125 123 124 126 127 129 131 134 136 135 137 139 141 140 141 142 140 137 134 137 139 138 137 135
110 97 47 58 103 118 121 127 113 105 95 93 93 92 69 66 102 115 126 129 127 128 129 132 127 129 128 127 128 127 128 130 134 135 136 138 141 143 145 144 144 141 138 136 136 138 138 138 134
132 83 64 88 92 87 103 118 110 106 107 108 103 103 84 105 111 121 124 126 130 132 129 128 131 129 129 127 126 126 125 127 133 136 138 140 144 148 147 146 147 144 143 139 137 142 144 142 139
136 106 162 139 103 96 104 107 109 117 117 121 119 101 109 124 127 121 121 125 123 120 118 109 127 128 125 122 123 125 123 123 130 135 140 143 144 146 148 149 151 150 149 146 142 149 150 151 152
169 110 110 133 115 122 125 102 111 114 111 119 116 124 150 165 139 119 109 108 111 113 115 119 115 103 103 114 123 124 122 122 128 135 142 148 152 150 151 152 154 155 154 151 151 149 155 158 159
139 80 169 168 140 146 128 107 93 86 96 93 89 121 144 143 129 117 105 98 105 110 115 122 114 108 107 116 127 129 128 127 129 134 141 146 147 152 156 158 161 162 162 160 158 158 166 168 163
140 150 199 178 156 149 136 127 126 106 97 93 94 107 129 135 133 132 132 131 130 129 133 129 124 118 116 125 111 113 122 124 123 124 133 133 136 148 154 161 168 170 170 167 165 165 168 165 134
174 185 179 149 145 134 134 127 105 118 118 142 140 142 142 140 138 143 146 145 147 146 143 137 131 124 125 115 118 119 116 117 121 133 140 138 133 140 143 147 166 172 173 170 168 167 170 153 150
193 217 155 143 138 125 127 127 104 115 150 152 146 147 147 145 148 153 153 153 150 143 146 143 143 137 135 119 121 133 137 139 143 155 151 146 141 141 145 148 158 159 161 165 166 174 178 160 157
186 170 135 127 119 122 113 115 114 113 131 137 140 144 149 149 151 156 153 150 148 147 151 149 149 149 144 131 131 132 146 154 160 156 157 151 152 155 155 155 162 164 165 170 171 180 171 157 159
196 116 130 134 126 130 118 116 107 134 135 138 144 150 155 154 154 151 151 152 152 155 157 154 149 150 139 140 141 143 157 157 153 161 170 164 164 162 161 161 171 179 178 178 173 173 168 169 161
75 54 3 164 136 143 114 92 134 152 142 144 152 155 156 157 155 158 164 162 158 158 156 153 152 143 139 146 150 148 160 156 157 173 175 169 167 165 162 165 178 188 176 163 149 148 142 166 168
31 41 345 235 155 163 121 159 175 159 150 153 160 160 159 163 164 164 163 159 159 154 151 157 151 142 143 142 141 145 154 149 165 174 175 177 174 166 164 165 180 178 160 151 149 154 144 164 172
19 114 203 260 217 158 131 169 183 171 159 163 168 167 165 163 165 166 165 162 162 160 154 156 150 151 150 141 137 142 146 144 153 162 165 178 177 165 160 167 172 159 147 146 165 150 161 169 186
243 227 224 213 225 144 143 170 173 178 168 170 172 171 169 171 177 172 164 161 159 158 157 161 160 161 156 141 117 110 111 133 152 157 153 154 163 156 146 147 150 145 139 145 155 157 163 166 173
209 210 237 245 220 147 158 165 179 180 173 175 175 175 175 180 178 168 164 161 157 152 154 164 169 174 160 152 155 155 174 183 160 163 154 151 149 149 142 144 141 142 149 166 164 145 138 146 126
204 215 252 272 217 157 163 177 184 179 183 182 179 180 179 173 166 167 165 163 164 165 168 170 173 174 177 176 174 169 169 175 161 143 137 145 144 150 148 141 142 145 140 138 145 134 133 167 143
251 202 211 205 295 44 97 17 236 195 172 178 180 178 177 176 174 173 171 172 168 171 175 177 180 176 174 166 144 131 96 63 78 104 139 154 146 142 142 146 141 147 149 163 171 163 153 177 210
247 222 186 182 148 249 129 175 263 200 191 192 187 178 180 179 171 172 172 172 174 178 175 173 175 173 172 162 155 155 161 175 195 184 171 159 151 153 153 152 152 154 154 162 182 178 172 164 199
225 212 182 186 159 73 27 124 272 176 191 209 196 187 184 181 177 177 176 175 173 172 171 170 165 173 175 169 168 168 173 180 172 156 154 166 177 173 166 161 161 165 165 172 180 167 173 178 191
208 65 33 44 69 16 250 156 255 221 206 199 188 190 186 180 176 172 169 164 166 169 168 166 164 173 176 171 168 171 174 169 155 158 167 181 198 199 189 177 174 179 178 181 188 183 182 195 194
94 89 33 360 8 262 263 151 237 232 204 189 180 188 184 176 172 168 167 167 170 171 171 168 168 172 174 170 172 175 177 173 173 175 176 177 186 202 209 179 168 177 188 185 177 182 208 205 199
195 137 154 191 221 271 319 233 255 238 197 186 177 178 173 171 172 174 176 173 174 173 172 171 174 175 174 172 177 178 177 175 181 183 179 184 194 198 191 181 174 176 184 188 186 199 220 221 229
166 177 169 145 181 252 276 268 303 296 141 168 176 172 176 178 178 176 177 176 175 176 176 176 176 177 179 179 175 176 177 174 177 179 174 182 194 188 176 177 179 190 192 191 183 210 231 225 220
160 158 94 107 151 245 277 262 239 249 224 187 178 187 191 181 180 181 178 178 176 177 174 172 174 181 184 183 184 183 187 184 184 181 179 183 189 184 172 179 186 192 193 190 189 214 230 211 227
54 73 106 121 151 162 230 264 232 202 192 184 187 197 190 181 182 184 181 176 171 170 173 175 177 176 179 183 184 182 184 184 181 184 191 190 187 184 183 184 183 190 197 200 197 220 207 201 241
153 160 139 146 220 172 177 257 258 187 183 169 173 184 175 168 176 174 175 172 171 175 178 180 180 182 184 183 178 180 181 178 179 186 185 175 178 183 187 179 177 188 189 187 188 215 209 192 206